Location: Olsztyn
(53.7767°N, 20.4765°E)
Time: 08:13:02
(UTC+01:00)

Transit 4A - Pass Details

Date: 05 October 2022
Orbit: 871 x 972 km, 66.8° (Epoch: 06 December)

Event Time Altitude Azimuth Distance (km) Brightness Sun altitude
Exits shadow 04:17:21 - 316° (NW) 3,044 10.4 -22.4°
Reaches altitude 10° 04:18:47 10° 322° (NW) 2,573 10.1 -22.2°
Maximum altitude 04:24:01 31° 24° (NNE) 1,505 9.4 -21.5°
Drops below altitude 10° 04:29:10 10° 86° (E) 2,530 11.2 -20.8°
Sets 04:31:56 0° 96° (E) 3,462 12.0 -20.4°
